• Join FlightAware (Why Join?)
  • Login
  • US Flag GB Flag 
03:50 EST


 

Airport Tracker/Info


-or-


 

Live Flight TrackerFlight Track Log ✈ FLG3735 ✈ 26-Jun-2013 ✈ KDTW - KALB

Flight Track Log - Related Links

Times and Time Zones

All times are in EDT time to prevent confusion due to time zone crossing. See the FLG3735 flight status page for this flight to view local times or setup timezone preferences in your user account.

Time Position Orientation Groundspeed Altitude Reporting Facility
EDT Latitude Longitude Course Direction KTS MPH feet Rate Location/Type
22:50 42.2017 -83.3583 82° East 159 183 1,200  Level Cleveland Center
22:51 42.1458 -83.3389 166° South 202 232 3,400 1,500 Climbing Cleveland Center
22:52 42.1222 -83.2764 117° Southeast 273 314 4,600 1,860 Climbing Cleveland Center
22:53 42.2840 -82.9135 75° East  Level FlightAware Approximate
22:53 42.1581 -83.1658 66° East 271 312 7,400  Level Cleveland Center
22:54 42.3131 -82.7681 75° East  Level FlightAware Approximate
22:54 42.1872 -83.0689 68° East 285 328 9,600  Level Cleveland Center
22:55 42.3298 -82.6193 82° East  Level FlightAware Approximate
22:55 42.2144 -82.9717 69° East 309 356 10,700  Level Cleveland Center
22:56 42.2547 -82.8386 68° East 321 369 11,900 1,200 Climbing Cleveland Center
22:57 42.2925 -82.7108 68° East 349 402 13,200 1,200 Climbing Cleveland Center
22:58 42.3303 -82.5800 69° East 361 415 14,400 1,140 Climbing Cleveland Center
22:59 42.3639 -82.4433 72° East 373 429 15,500 1,140 Climbing Cleveland Center
23:00 42.3600 -82.2972 92° East 373 429 16,700 1,140 Climbing Cleveland Center
23:01 42.3558 -82.1511 92° East 373 429 17,800 1,020 Climbing Cleveland Center
23:02 42.3678 -82.0192 83° East 391 450 18,800 1,020 Climbing Cleveland Center
23:03 42.3803 -81.8564 84° East 399 459 19,900 1,020 Climbing Cleveland Center
23:04 42.3922 -81.7050 84° East 399 459 20,900 960 Climbing Cleveland Center
23:05 42.4061 -81.5617 82° East 399 459 21,900 900 Climbing Cleveland Center
23:06 42.4156 -81.4156 85° East 388 447 22,700 660 Climbing Cleveland Center
23:07 42.4269 -81.2639 84° East 388 447 23,300 540 Climbing Cleveland Center
23:08 42.4403 -81.1150 83° East 394 453 23,800 480 Climbing Cleveland Center
23:09 42.4511 -80.9603 85° East 404 465 24,300 420 Climbing Cleveland Center
23:10 42.4600 -80.8167 85° East 409 471 24,700 420 Climbing Cleveland Center
23:11 42.4706 -80.6592 85° East 416 479 25,200 480 Climbing Cleveland Center
23:12 42.4831 -80.5017 84° East 422 486 25,700 480 Climbing Cleveland Center
23:13 42.4933 -80.3439 85° East 422 486 26,200 540 Climbing Cleveland Center
23:14 42.5033 -80.1861 85° East 422 486 26,800 360 Climbing Cleveland Center
23:15 42.5131 -80.0283 85° East 422 486 27,000 60 Climbing Cleveland Center
23:16 42.5289 -79.8647 82° East 427 491 27,000  Level Cleveland Center
23:17 42.5403 -79.7011 85° East 427 491 27,000  Level Cleveland Center
23:18 42.5492 -79.5347 86° East 432 497 27,000  Level Cleveland Center
23:19 42.5581 -79.3656 86° East 442 509 27,000  Level Cleveland Center
23:20 42.5686 -79.1989 85° East 442 509 27,000  Level Cleveland Center
23:21 42.5769 -79.0267 86° East 447 514 27,000  Level Cleveland Center
23:22 42.5850 -78.8603 86° East 447 514 27,000  Level Cleveland Center
23:23 42.5947 -78.6906 85° East 447 514 27,000  Level Cleveland Center
23:24 42.6044 -78.5211 85° East 447 514 27,000  Level Cleveland Center
23:25 42.6117 -78.3489 87° East 447 514 27,000  Level Cleveland Center
23:26 42.6208 -78.1819 86° East 447 514 27,000  Level Cleveland Center
23:27 42.6294 -78.0094 86° East 447 514 27,000  Level Cleveland Center
23:28 42.6361 -77.8397 87° East 447 514 27,000  Level Cleveland Center
23:29 42.6439 -77.6503 87° East 447 514 27,000  Level Cleveland Center
23:30 42.6542 -77.4806 85° East 447 514 27,000  Level Cleveland Center
23:32 42.6639 -77.1903 87° East 475 547 27,000  Level Boston Center
23:33 42.6708 -77.0156 87° East 465 535 27,000  Level Boston Center
23:34 42.6778 -76.8436 87° East 460 529 27,000  Level Boston Center
23:35 42.6844 -76.6661 87° East 460 529 27,000  Level Boston Center
23:36 42.6889 -76.4911 88° East 460 529 27,000  Level Boston Center
23:37 42.6969 -76.3164 86° East 460 529 27,000  Level Boston Center
23:38 42.7053 -76.1278 86° East 460 529 27,000  Level Boston Center
23:39 42.7089 -75.9469 88° East 460 529 27,000  Level Boston Center
23:40 42.7122 -75.7719 88° East 460 529 27,000  Level Boston Center
23:41 42.7172 -75.5969 88° East 460 529 27,000 -1,080 Level Boston Center
23:42 42.7200 -75.4161 89° East 460 529 24,900 -2,400 Descending Boston Center
23:43 42.7267 -75.2383 87° East 471 542 22,200 -2,700 Descending Boston Center
23:44 42.7283 -75.0717 89° East 459 528 19,500 -2,700 Descending Boston Center
23:45 42.7342 -74.9108 87° East 442 509 16,800 -2,640 Descending Boston Center
23:46 42.7358 -74.7328 89° East 407 468 13,900 -2,400 Descending Boston Center
23:47 42.7361 -74.6025 90° East 392 451 12,000 -1,920 Descending Boston Center
23:48 42.7556 -74.4592 79° East 346 398 10,300 -1,320 Descending Boston Center
23:49 42.7742 -74.3494 77° East 282 325 9,400 -1,200 Descending Boston Center
23:50 42.7883 -74.2394 80° East 285 328 7,900 -1,560 Descending Boston Center
23:51 42.8025 -74.1353 79° East 286 329 6,300 -1,680 Descending Boston Center
23:52 42.8208 -74.0225 77° East 272 313 4,400 -1,620 Descending Boston Center
23:53 42.8325 -73.9350 80° East 263 303 3,100 -1,260 Descending Boston Center
23:54 42.8481 -73.8447 77° East 235 270 2,100 -1,020 Descending Boston Center